Location: Unspecified
(0.0000°N, 0.0000°E)
Time: 13:43:26
(UTC+00:00)

Tiros 1 - Pass Details

Date: 24 November 2019
Orbit: 630 x 664 km, 48.4° (Epoch: 08 December)

Event Time Altitude Azimuth Distance (km) Brightness Sun altitude
Rises 10:30:26 0° 258° (WSW) 2,940 10.4 62.3°
Reaches altitude 10° 10:34:32 10° 293° (WNW) 2,018 9.6 62.9°
Maximum altitude 10:35:53 11° 310° (NW) 1,937 9.5 63.2°
Drops below altitude 10° 10:37:15 10° 327° (NNW) 2,010 9.5 63.4°
Sets 10:41:20 0° 3° (N) 2,906 10.3 64.0°
